PEGASUS DEB, 39322

Orbit data source: Space-Track

PEGASUS DEB, 39322 is space debris in LEO originally from a launch on Thu, 19 May 1994 UTC launched from the Air Force Western Test Range (AFWTR). Debris objects in space refer to the collection of defunct objects orbiting the Earth. Examples of debris include non-operational satellites, rocket bodies, and fragments generated from explosions, collisions, or faulty payload assembly.

Loading next visibility...
Identifier
39322, 1994-029AFH
Orbit
LEO
Country
Flag of USUS
Related business
Manufacturer
Unknown
Mission
Spacecraft
Bus & Motor
Unknown
Mass
Unknown
Launch date (UTC)
1994-05-19 (32 years ago)
Launch vehicle
Unknown
Launch site
Air Force Western Test Range (AFWTR)
Object type
Payload
Rocket body
Debris
Shape & HBR
Unknown shape, 0.1 m
Radar Cross Section
Small (<0.1 m²)

Expand to show TLE details & history
Last TLE update: 1 day ago

TLE from 1 day ago
0 PEGASUS DEB
1 39322U 94029AFH 26119.87135083  .00003383  00000-0  57518-3 0  9993
2 39322  81.9245 167.8510 0235473 129.9398 232.2751 14.52174110675818
Epoch: 2026-04-29T20:54Z
TLE epoch observation values (Epoch: 2026-04-29T20:54:44.711Z)
Latitude
-0.00007°
Longitude
-3.6614°
Altitude
826.219 km
Speed
7.385 km/s
True Right ascension
11h 11m 24s
True Declination
0° 00' 00"
Sunlit
Object was in full shadow at epoch
Visualization orbit readout
Latitude
Unknown
Longitude
Unknown
Altitude
Unknown
Speed
Unknown
Apparent Right ascension
Unknown
Apparent Declination
Unknown
Sunlit
N/A
Visualization observer readout
Local Sidereal Time
07:25:11
Azimuth
Unknown
Elevation
Unknown
Doppler factor
Unknown
Orbital elements
Apogee altitude
882.679 km
Perigee altitude
548.601 km
Semi-major axis
7,093.777 km
Eccentricity
0.02355
Inclination
81.9245°
RAAN
167.851°
Arg. of periapsis
129.9398°
True anomaly
230.17909°
Mean anomaly
232.2751°
Eccentric anomaly
231.2233°
Mean motion
3.63268 °/min
Orbital period
99.1 mins
BSTAR
0.00057518
Loading maneuver chart data...
Computing Atmospheric mass density...
Loading historical data...
Loading historical data...
Loading historical data...
Loading historical data...
Loading historical data...
Loading historical data...
Loading historical data...

Documentation

Showing up to 5 results
|